This is the latest recevied weather packets stored in our database for station/object K2EJ-13. If no packets are shown the sender has not sent any weather packets the latest 10 day(s).
| Time | Temp. | Humidity | Pressure | Rain* | Wind** | Luminosity | Snow |
|---|---|---|---|---|---|---|---|
| 1777983315 | 20° C | 61% | 1011.7 hPa | 0 mm | - | - | - |
| 1777979115 | 13.33° C | 95% | 1011.2 hPa | 0 mm | - | - | - |
| 1777974916 | 12.22° C | 96% | 1010.4 hPa | 0 mm | - | - | - |
| 1777974315 | 12.78° C | 95% | 1010.4 hPa | 0 mm | - | - | - |
| 1777967715 | 15° C | 86% | 1010.4 hPa | 0 mm | - | - | - |
| 1777966516 | 15.56° C | 86% | 1010.2 hPa | 0 mm | - | - | - |
| 1777962316 | 15° C | 92% | 1010.1 hPa | 0 mm | - | - | - |
| 1777960515 | 15.56° C | 87% | 1010.1 hPa | 0 mm | - | - | - |
| 1777959935 | 16.11° C | 86% | 1010.1 hPa | 0 mm | - | - | - |
| 1777959316 | 16.11° C | 86% | 1010.3 hPa | 0 mm | - | - | - |
| 1777955116 | 16.11° C | 82% | 1010 hPa | 0 mm | - | - | - |
| 1777954515 | 16.67° C | 81% | 1010 hPa | 0 mm | - | - | - |
| 1777952116 | 16.67° C | 76% | 1009.9 hPa | 0 mm | - | - | - |
| 1777950315 | 17.22° C | 71% | 1009.9 hPa | 0 mm | - | - | - |
| 1777947915 | 17.22° C | 70% | 1009.8 hPa | 0 mm | - | - | - |
| 1777945536 | 17.78° C | 67% | 1009.8 hPa | 0 mm | - | - | - |
| 1777940115 | 18.89° C | 59% | 1009.2 hPa | 0 mm | - | - | - |
| 1777939515 | 18.89° C | 59% | 1009.2 hPa | 0 mm | - | - | - |
| 1777932315 | 22.22° C | 40% | 1009.1 hPa | 0 mm | - | - | - |
| 1777931715 | 22.22° C | 39% | 1009.1 hPa | 0 mm | - | - | - |
| 1777931116 | 22.22° C | 38% | 1009.2 hPa | 0 mm | - | - | - |
| 1777929915 | 22.78° C | 38% | 1009.1 hPa | 0 mm | - | - | - |
| 1777928715 | 22.78° C | 37% | 1009.2 hPa | 0 mm | - | - | - |
| 1777927515 | 23.33° C | 38% | 1009.4 hPa | 0 mm | - | - | - |
| 1777925715 | 23.33° C | 36% | 1009.8 hPa | 0 mm | - | - | - |
* Rain latest hour (hover to see other rain measurements)
** Current wind speed in m/s (hover to see current wind gust speed)